Aurora, CO

3:34 AM MDT on August 18, 2017 (GMT -0600)
Buckley Air Force Base

Weather History for KBKF - July, 2013

Change the Weather History Date:

Thursday, July 11, 2013

  Actual Average Record
Temperature  
Mean Temperature 79 °F -  
Max Temperature 96 °F 86 °F 96 °F (2013)
Min Temperature 62 °F 59 °F 55 °F (2010)
Cooling Degree Days 14    
Growing Degree Days 29 (Base 50)    
Moisture  
Dew Point 52 °F    
Average Humidity 44    
Maximum Humidity 73    
Minimum Humidity 14    
Precipitation  
Precipitation 0.02 in - - ()
Sea Level Pressure  
Sea Level Pressure 29.84 in    
Wind  
Wind Speed 18 mph (South)    
Max Wind Speed 28 mph    
Max Gust Speed 37 mph    
Visibility 7 miles    
Events Rain , Thunderstorm    
Averages and records for this station are not official NWS values.
T = Trace of Precipitation, MM = Missing Value Source: NWS Daily Summary

Daily Weather History Graph

Daily Weather History Graph

Search for Another Location

Airport or City:

Trip Planner

Search our weather history database for the weather conditions in past years. The results will help you decide how hot, cold, wet, or windy it might be!

Date:

Astronomy

Jul. 11, 2013 Rise Set
Actual Time 5:40 AM MDT 8:27 PM MDT
Civil Twilight 5:09 AM MDT 8:59 PM MDT
Nautical Twilight 4:28 AM MDT 9:39 PM MDT
Astronomical Twilight 3:43 AM MDT 10:25 PM MDT
Moon 9:01 AM MDT (7/11) 10:10 PM MDT (7/11)
Length of Visible Light 15h 50m
Length of Day
14h 46m
Waxing Crescent, 11% of the Moon is Illuminated
Jul 11
Waxing Crescent
Jul 15
First Quarter
Jul 22
Full
Jul 29
Last Quarter
Aug 6
New

Hourly Weather History & Observations

Time (MDT) Temp. Heat Index Dew Point Humidity Pressure Visibility Wind Dir Wind Speed Gust Speed Precip Events Conditions
12:55 AM 68.0 °F - 53.6 °F 60% 29.93 in 25.0 mi South 27.6 mph 36.8 mph N/A   Mostly Cloudy
1:55 AM 68.0 °F - 53.6 °F 60% 29.95 in 25.0 mi South 24.2 mph 35.7 mph N/A   Mostly Cloudy
2:55 AM 68.0 °F - 51.8 °F 56% 29.90 in 25.0 mi South 26.5 mph 33.4 mph N/A   Mostly Cloudy
3:55 AM 66.2 °F - 51.8 °F 60% 29.90 in 25.0 mi South 19.6 mph - N/A   Mostly Cloudy
4:55 AM 64.4 °F - 53.6 °F 68% 29.90 in 25.0 mi South 17.3 mph - N/A   Mostly Cloudy
5:55 AM 62.6 °F - 53.6 °F 72% 29.91 in - SSW 13.8 mph 23.0 mph N/A   Scattered Clouds
6:55 AM 64.4 °F - 53.6 °F 68% 29.91 in - SSW 10.4 mph - N/A   Scattered Clouds
7:55 AM 68.0 °F - 53.6 °F 60% 29.91 in - SSW 2.3 mph - N/A   Scattered Clouds
8:55 AM 75.2 °F - 53.6 °F 47% 29.89 in - SSW 9.2 mph - N/A   Scattered Clouds
9:55 AM 82.4 °F - 50.0 °F 32% 29.86 in - SSW 6.9 mph - N/A   Scattered Clouds
10:55 AM 89.6 °F - 46.4 °F 22% 29.83 in - East 5.8 mph - N/A   Scattered Clouds
11:55 AM 91.4 °F - 46.4 °F 21% 29.81 in - East 5.8 mph - N/A   Scattered Clouds
12:55 PM 95.0 °F - 41.0 °F 15% 29.78 in - SSE 13.8 mph 20.7 mph N/A   Scattered Clouds
1:55 PM 96.8 °F - 42.8 °F 16% 29.75 in - SE 16.1 mph 20.7 mph N/A   Scattered Clouds
2:55 PM 95.0 °F - 39.2 °F 14% 29.74 in 70.0 mi South 11.5 mph 18.4 mph N/A   Mostly Cloudy
3:55 PM 96.8 °F - 48.2 °F 19% 29.73 in 70.0 mi SE 18.4 mph 28.8 mph N/A   Scattered Clouds
4:55 PM 95.0 °F - 51.8 °F 23% 29.73 in 70.0 mi SSE 24.2 mph 32.2 mph N/A   Partly Cloudy
5:55 PM 91.4 °F 89.1 °F 53.6 °F 28% 29.73 in 70.0 mi SE 26.5 mph - N/A   Partly Cloudy
6:55 PM 87.8 °F - 51.8 °F 29% 29.72 in 70.0 mi SSE 24.2 mph 32.2 mph N/A   Scattered Clouds
7:55 PM 86.0 °F 84.2 °F 53.6 °F 33% 29.73 in 70.0 mi SSE 19.6 mph 29.9 mph N/A Thunderstorm Mostly Cloudy
8:08 PM 84.2 °F 82.8 °F 53.6 °F 35% 30.00 in 70.0 mi South 20.7 mph 27.6 mph N/A Thunderstorm Thunderstorm
8:55 PM 82.4 °F 82.5 °F 59.0 °F 45% 29.76 in 25.0 mi South 19.6 mph 28.8 mph N/A Thunderstorm Thunderstorm
9:55 PM 80.6 °F 80.8 °F 57.2 °F 45% 29.79 in 25.0 mi WSW 18.4 mph 26.5 mph N/A Thunderstorm Thunderstorm
10:55 PM 69.8 °F - 59.0 °F 68% 29.82 in 7.0 mi South 6.9 mph - N/A Rain , Thunderstorm Light Thunderstorms and Rain
11:21 PM 68.0 °F - 59.0 °F 73% 30.08 in 7.0 mi SW 11.5 mph - N/A Thunderstorm Mostly Cloudy
11:55 PM 68.0 °F - 59.0 °F 73% 29.80 in 7.0 mi SW 8.1 mph - N/A   Mostly Cloudy